date,time,SUV Intensity [MED/Hr],UV Index,Daily total [MED],Since Last [MED]
21/04/2022,00:07:09,0.000,0.0,0.0,0.0
21/04/2022,00:08:09,0.000,0.0,0.0,0.0
21/04/2022,00:09:10,0.000,0.0,0.0,0.0
21/04/2022,00:10:10,0.000,0.0,0.0,0.0
21/04/2022,00:11:18,0.000,0.0,0.0,0.0
21/04/2022,00:13:10,0.000,0.0,0.0,0.0
21/04/2022,00:14:10,0.000,0.0,0.0,0.0
21/04/2022,00:15:10,0.000,0.0,0.0,0.0
21/04/2022,00:16:09,0.000,0.0,0.0,0.0
21/04/2022,00:17:10,0.000,0.0,0.0,0.0
21/04/2022,00:18:10,0.000,0.0,0.0,0.0
21/04/2022,00:19:10,0.000,0.0,0.0,0.0
21/04/2022,00:20:10,0.000,0.0,0.0,0.0
21/04/2022,00:21:09,0.000,0.0,0.0,0.0
21/04/2022,00:22:10,0.000,0.0,0.0,0.0
21/04/2022,00:23:09,0.000,0.0,0.0,0.0
21/04/2022,00:24:09,0.000,0.0,0.0,0.0
21/04/2022,00:25:10,0.000,0.0,0.0,0.0
21/04/2022,00:26:09,0.000,0.0,0.0,0.0
21/04/2022,00:27:10,0.001,0.0,0.0,0.0
21/04/2022,00:28:09,0.000,0.0,0.0,0.0
21/04/2022,00:29:10,0.000,0.0,0.0,0.0
21/04/2022,00:30:10,0.000,0.0,0.0,0.0
21/04/2022,00:31:10,0.000,0.0,0.0,0.0
21/04/2022,00:32:09,0.000,0.0,0.0,0.0
21/04/2022,00:33:10,0.000,0.0,0.0,0.0
21/04/2022,00:34:10,0.000,0.0,0.0,0.0
21/04/2022,00:35:09,0.000,0.0,0.0,0.0
21/04/2022,00:36:10,0.000,0.0,0.0,0.0
21/04/2022,00:37:09,0.000,0.0,0.0,0.0
21/04/2022,00:38:10,0.000,0.0,0.0,0.0
21/04/2022,00:39:09,0.000,0.0,0.0,0.0
21/04/2022,00:40:10,0.001,0.0,0.0,0.0
21/04/2022,00:41:09,0.001,0.0,0.0,0.0
21/04/2022,00:42:10,0.001,0.0,0.0,0.0
21/04/2022,00:43:10,0.001,0.0,0.0,0.0
21/04/2022,00:44:10,0.000,0.0,0.0,0.0
21/04/2022,00:45:18,0.000,0.0,0.0,0.0
21/04/2022,00:47:10,0.001,0.0,0.0,0.0
21/04/2022,00:48:18,0.001,0.0,0.0,0.0
21/04/2022,00:49:09,0.000,0.0,0.0,0.0
21/04/2022,00:50:09,0.000,0.0,0.0,0.0
21/04/2022,00:51:11,0.000,0.0,0.0,0.0
21/04/2022,00:52:10,0.000,0.0,0.0,0.0
21/04/2022,00:53:10,0.000,0.0,0.0,0.0
21/04/2022,00:54:10,0.000,0.0,0.0,0.0
21/04/2022,00:56:10,0.001,0.0,0.0,0.0
21/04/2022,00:57:10,0.000,0.0,0.0,0.0
21/04/2022,00:58:10,0.001,0.0,0.0,0.0
21/04/2022,00:59:10,0.001,0.0,0.0,0.0
21/04/2022,01:00:09,0.000,0.0,0.0,0.0
21/04/2022,01:01:18,0.000,0.0,0.0,0.0
21/04/2022,01:03:10,0.001,0.0,0.0,0.0
21/04/2022,01:04:10,0.001,0.0,0.0,0.0
21/04/2022,01:05:10,0.001,0.0,0.0,0.0
21/04/2022,01:06:10,0.001,0.0,0.0,0.0
21/04/2022,01:07:09,0.001,0.0,0.0,0.0
21/04/2022,01:08:10,0.000,0.0,0.0,0.0
21/04/2022,01:09:10,0.000,0.0,0.0,0.0
21/04/2022,01:10:09,0.002,0.0,0.0,0.0
21/04/2022,01:11:18,0.001,0.0,0.0,0.0
21/04/2022,01:12:09,0.001,0.0,0.0,0.0
21/04/2022,01:13:10,0.001,0.0,0.0,0.0
21/04/2022,01:14:27,0.001,0.0,0.0,0.0
21/04/2022,01:16:18,0.001,0.0,0.0,0.0
21/04/2022,01:18:10,0.000,0.0,0.0,0.0
21/04/2022,01:19:10,0.001,0.0,0.0,0.0
21/04/2022,01:20:10,0.001,0.0,0.0,0.0
21/04/2022,01:21:10,0.000,0.0,0.0,0.0
21/04/2022,01:22:10,0.000,0.0,0.0,0.0
21/04/2022,01:23:10,0.002,0.0,0.0,0.0
21/04/2022,01:24:10,0.001,0.0,0.0,0.0
21/04/2022,01:25:09,0.000,0.0,0.0,0.0
21/04/2022,01:26:10,0.001,0.0,0.0,0.0
21/04/2022,01:27:09,0.001,0.0,0.0,0.0
21/04/2022,01:28:10,0.002,0.0,0.0,0.0
21/04/2022,01:29:10,0.001,0.0,0.0,0.0
21/04/2022,01:30:09,0.001,0.0,0.0,0.0
21/04/2022,01:31:09,0.002,0.0,0.0,0.0
21/04/2022,01:32:10,0.001,0.0,0.0,0.0
21/04/2022,01:33:10,0.001,0.0,0.0,0.0
21/04/2022,01:34:10,0.001,0.0,0.0,0.0
21/04/2022,01:35:09,0.001,0.0,0.0,0.0
21/04/2022,01:36:10,0.000,0.0,0.0,0.0
21/04/2022,01:37:10,0.001,0.0,0.0,0.0
21/04/2022,01:38:09,0.001,0.0,0.0,0.0
21/04/2022,01:39:10,0.001,0.0,0.0,0.0
21/04/2022,01:40:10,0.001,0.0,0.0,0.0
21/04/2022,01:41:10,0.000,0.0,0.0,0.0
21/04/2022,01:42:18,0.001,0.0,0.0,0.0
21/04/2022,01:43:09,0.001,0.0,0.0,0.0
21/04/2022,01:44:10,0.001,0.0,0.0,0.0
21/04/2022,01:45:09,0.001,0.0,0.0,0.0
21/04/2022,01:46:10,0.000,0.0,0.0,0.0
21/04/2022,01:47:10,0.001,0.0,0.0,0.0
21/04/2022,01:48:09,0.001,0.0,0.0,0.0
21/04/2022,01:49:09,0.001,0.0,0.0,0.0
21/04/2022,01:50:10,0.001,0.0,0.0,0.0
21/04/2022,01:51:10,0.002,0.0,0.0,0.0
21/04/2022,01:52:10,0.002,0.0,0.0,0.0
21/04/2022,01:53:10,0.001,0.0,0.0,0.0
21/04/2022,01:54:10,0.000,0.0,0.0,0.0
21/04/2022,01:55:18,0.001,0.0,0.0,0.0
21/04/2022,01:56:10,0.001,0.0,0.0,0.0
21/04/2022,01:57:10,0.001,0.0,0.0,0.0
21/04/2022,01:58:09,0.001,0.0,0.0,0.0
21/04/2022,01:59:10,0.001,0.0,0.0,0.0
21/04/2022,02:00:09,0.001,0.0,0.0,0.0
21/04/2022,02:01:09,0.001,0.0,0.0,0.0
21/04/2022,02:02:18,0.001,0.0,0.0,0.0
21/04/2022,02:04:11,0.002,0.0,0.0,0.0
21/04/2022,02:05:19,0.000,0.0,0.0,0.0
21/04/2022,02:07:10,0.001,0.0,0.0,0.0
21/04/2022,02:08:10,0.001,0.0,0.0,0.0
21/04/2022,02:09:10,0.000,0.0,0.0,0.0
21/04/2022,02:10:09,0.001,0.0,0.0,0.0
21/04/2022,02:11:10,0.001,0.0,0.0,0.0
21/04/2022,02:12:18,0.001,0.0,0.0,0.0
21/04/2022,02:13:09,0.000,0.0,0.0,0.0
21/04/2022,02:14:18,0.001,0.0,0.0,0.0
21/04/2022,02:15:10,0.002,0.0,0.0,0.0
21/04/2022,02:16:10,0.001,0.0,0.0,0.0
21/04/2022,02:17:10,0.002,0.0,0.0,0.0
21/04/2022,02:18:10,0.001,0.0,0.0,0.0
21/04/2022,02:19:10,0.001,0.0,0.0,0.0
21/04/2022,02:20:09,0.001,0.0,0.0,0.0
21/04/2022,02:21:10,0.001,0.0,0.0,0.0
21/04/2022,02:22:18,0.001,0.0,0.0,0.0
21/04/2022,02:23:09,0.001,0.0,0.0,0.0
21/04/2022,02:24:10,0.001,0.0,0.0,0.0
21/04/2022,02:25:09,0.002,0.0,0.0,0.0
21/04/2022,02:26:10,0.002,0.0,0.0,0.0
21/04/2022,02:27:10,0.001,0.0,0.0,0.0
21/04/2022,02:28:09,0.001,0.0,0.0,0.0
21/04/2022,02:29:10,0.001,0.0,0.0,0.0
21/04/2022,02:30:09,0.000,0.0,0.0,0.0
21/04/2022,02:31:10,0.001,0.0,0.0,0.0
21/04/2022,02:32:10,0.002,0.0,0.0,0.0
21/04/2022,02:33:10,0.001,0.0,0.0,0.0
21/04/2022,02:34:10,0.001,0.0,0.0,0.0
21/04/2022,02:35:10,0.002,0.0,0.0,0.0
21/04/2022,02:36:10,0.000,0.0,0.0,0.0
21/04/2022,02:37:10,0.001,0.0,0.0,0.0
21/04/2022,02:38:10,0.001,0.0,0.0,0.0
21/04/2022,02:39:10,0.002,0.0,0.0,0.0
21/04/2022,02:40:10,0.001,0.0,0.0,0.0
21/04/2022,02:41:10,0.002,0.0,0.0,0.0
21/04/2022,02:42:10,0.001,0.0,0.0,0.0
21/04/2022,02:43:10,0.000,0.0,0.0,0.0
21/04/2022,02:44:09,0.001,0.0,0.0,0.0
21/04/2022,02:45:09,0.001,0.0,0.0,0.0
21/04/2022,02:46:18,0.001,0.0,0.0,0.0
21/04/2022,02:47:09,0.001,0.0,0.0,0.0
21/04/2022,02:48:10,0.000,0.0,0.0,0.0
21/04/2022,02:49:10,0.002,0.0,0.0,0.0
21/04/2022,02:50:10,0.001,0.0,0.0,0.0
21/04/2022,02:51:09,0.002,0.0,0.0,0.0
21/04/2022,02:52:10,0.001,0.0,0.0,0.0
21/04/2022,02:53:10,0.002,0.0,0.0,0.0
21/04/2022,02:54:10,0.000,0.0,0.0,0.0
21/04/2022,02:55:09,0.001,0.0,0.0,0.0
21/04/2022,02:56:19,0.002,0.0,0.0,0.0
21/04/2022,02:57:10,0.000,0.0,0.0,0.0
21/04/2022,02:58:09,0.002,0.0,0.0,0.0
21/04/2022,02:59:10,0.002,0.0,0.0,0.0
21/04/2022,03:00:09,0.001,0.0,0.0,0.0
21/04/2022,03:01:10,0.003,0.0,0.0,0.0
21/04/2022,03:02:10,0.001,0.0,0.0,0.0
21/04/2022,03:03:18,0.000,0.0,0.0,0.0
21/04/2022,03:04:09,0.001,0.0,0.0,0.0
21/04/2022,03:05:18,0.001,0.0,0.0,0.0
21/04/2022,03:06:09,0.000,0.0,0.0,0.0
21/04/2022,03:07:10,0.001,0.0,0.0,0.0
21/04/2022,03:08:10,0.002,0.0,0.0,0.0
21/04/2022,03:09:26,0.001,0.0,0.0,0.0
21/04/2022,03:11:21,0.002,0.0,0.0,0.0
21/04/2022,03:13:10,0.001,0.0,0.0,0.0
21/04/2022,03:14:10,0.002,0.0,0.0,0.0
21/04/2022,03:15:09,0.001,0.0,0.0,0.0
21/04/2022,03:16:10,0.001,0.0,0.0,0.0
21/04/2022,03:17:10,0.001,0.0,0.0,0.0
21/04/2022,03:18:09,0.002,0.0,0.0,0.0
21/04/2022,03:19:10,0.001,0.0,0.0,0.0
21/04/2022,03:20:10,0.001,0.0,0.0,0.0
21/04/2022,03:21:09,0.002,0.0,0.0,0.0
21/04/2022,03:22:10,0.001,0.0,0.0,0.0
21/04/2022,03:23:10,0.001,0.0,0.0,0.0
21/04/2022,03:24:10,0.002,0.0,0.0,0.0
21/04/2022,03:25:10,0.001,0.0,0.0,0.0
21/04/2022,03:26:10,0.002,0.0,0.0,0.0
21/04/2022,03:27:10,0.001,0.0,0.0,0.0
21/04/2022,03:28:10,0.001,0.0,0.0,0.0
21/04/2022,03:29:10,0.002,0.0,0.0,0.0
21/04/2022,03:30:10,0.002,0.0,0.0,0.0
21/04/2022,03:31:09,0.001,0.0,0.0,0.0
21/04/2022,03:32:10,0.002,0.0,0.0,0.0
21/04/2022,03:33:10,0.001,0.0,0.0,0.0
21/04/2022,03:34:18,0.002,0.0,0.0,0.0
21/04/2022,03:35:10,0.001,0.0,0.0,0.0
21/04/2022,03:36:11,0.001,0.0,0.0,0.0
21/04/2022,03:37:18,0.002,0.0,0.0,0.0
21/04/2022,03:38:10,0.001,0.0,0.0,0.0
21/04/2022,03:39:10,0.002,0.0,0.0,0.0
21/04/2022,03:40:18,0.001,0.0,0.0,0.0
21/04/2022,03:42:11,0.001,0.0,0.0,0.0
21/04/2022,03:43:10,0.001,0.0,0.0,0.0
21/04/2022,03:44:10,0.001,0.0,0.0,0.0
21/04/2022,03:45:10,0.001,0.0,0.0,0.0
21/04/2022,03:46:10,0.001,0.0,0.0,0.0
21/04/2022,03:47:18,0.001,0.0,0.0,0.0
21/04/2022,03:48:09,0.002,0.0,0.0,0.0
21/04/2022,03:49:10,0.002,0.0,0.0,0.0
21/04/2022,03:50:10,0.002,0.0,0.0,0.0
21/04/2022,03:51:10,0.003,0.0,0.0,0.0
21/04/2022,03:52:10,0.002,0.0,0.0,0.0
21/04/2022,03:53:09,0.001,0.0,0.0,0.0
21/04/2022,03:54:10,0.000,0.0,0.0,0.0
21/04/2022,03:55:10,0.001,0.0,0.0,0.0
21/04/2022,03:56:10,0.001,0.0,0.0,0.0
21/04/2022,03:57:18,0.003,0.0,0.0,0.0
21/04/2022,03:58:18,0.001,0.0,0.0,0.0
21/04/2022,03:59:09,0.001,0.0,0.0,0.0
21/04/2022,04:00:10,0.001,0.0,0.0,0.0
21/04/2022,04:01:27,0.001,0.0,0.0,0.0
21/04/2022,04:03:11,0.001,0.0,0.0,0.0
21/04/2022,04:04:10,0.001,0.0,0.0,0.0
21/04/2022,04:05:10,0.002,0.0,0.0,0.0
21/04/2022,04:06:10,0.002,0.0,0.0,0.0
21/04/2022,04:07:10,0.002,0.0,0.0,0.0
21/04/2022,04:08:10,0.001,0.0,0.0,0.0
21/04/2022,04:09:18,0.002,0.0,0.0,0.0
21/04/2022,04:10:09,0.002,0.0,0.0,0.0
21/04/2022,04:11:10,0.002,0.0,0.0,0.0
21/04/2022,04:12:09,0.002,0.0,0.0,0.0
21/04/2022,04:13:10,0.000,0.0,0.0,0.0
21/04/2022,04:14:10,0.002,0.0,0.0,0.0
21/04/2022,04:15:10,0.001,0.0,0.0,0.0
21/04/2022,04:16:08,0.002,0.0,0.0,0.0
21/04/2022,04:17:10,0.001,0.0,0.0,0.0
21/04/2022,04:18:18,0.000,0.0,0.0,0.0
21/04/2022,04:19:09,0.002,0.0,0.0,0.0
21/04/2022,04:20:10,0.002,0.0,0.0,0.0
21/04/2022,04:21:10,0.000,0.0,0.0,0.0
21/04/2022,04:22:10,0.001,0.0,0.0,0.0
21/04/2022,04:23:10,0.001,0.0,0.0,0.0
21/04/2022,04:24:10,0.001,0.0,0.0,0.0
21/04/2022,04:25:10,0.001,0.0,0.0,0.0
21/04/2022,04:26:10,0.002,0.0,0.0,0.0
21/04/2022,04:27:10,0.003,0.0,0.0,0.0
21/04/2022,04:28:18,0.000,0.0,0.0,0.0
21/04/2022,04:29:18,0.002,0.0,0.0,0.0
21/04/2022,04:30:10,0.001,0.0,0.0,0.0
21/04/2022,04:31:22,0.002,0.0,0.0,0.0
21/04/2022,04:33:11,0.002,0.0,0.0,0.0
21/04/2022,04:34:10,0.002,0.0,0.0,0.0
21/04/2022,04:35:10,0.003,0.0,0.0,0.0
21/04/2022,04:36:18,0.002,0.0,0.0,0.0
21/04/2022,04:37:09,0.002,0.0,0.0,0.0
21/04/2022,04:38:10,0.002,0.0,0.0,0.0
21/04/2022,04:39:10,0.003,0.0,0.0,0.0
21/04/2022,04:40:10,0.002,0.0,0.0,0.0
21/04/2022,04:41:10,0.002,0.0,0.0,0.0
21/04/2022,04:42:10,0.001,0.0,0.0,0.0
21/04/2022,04:43:11,0.001,0.0,0.0,0.0
21/04/2022,04:44:10,0.002,0.0,0.0,0.0
21/04/2022,04:45:10,0.002,0.0,0.0,0.0
21/04/2022,04:46:10,0.002,0.0,0.0,0.0
21/04/2022,04:47:10,0.002,0.0,0.0,0.0
21/04/2022,04:48:10,0.002,0.0,0.0,0.0
21/04/2022,04:49:10,0.002,0.0,0.0,0.0
21/04/2022,04:50:10,0.002,0.0,0.0,0.0
21/04/2022,04:51:10,0.003,0.0,0.0,0.0
21/04/2022,04:52:10,0.002,0.0,0.0,0.0
21/04/2022,04:53:10,0.002,0.0,0.0,0.0
21/04/2022,04:54:10,0.002,0.0,0.0,0.0
21/04/2022,04:55:10,0.003,0.0,0.0,0.0
21/04/2022,04:56:11,0.003,0.0,0.0,0.0
21/04/2022,04:57:10,0.003,0.0,0.0,0.0
21/04/2022,04:58:10,0.004,0.0,0.0,0.0
21/04/2022,04:59:10,0.004,0.0,0.0,0.0
21/04/2022,05:00:10,0.004,0.0,0.0,0.0
21/04/2022,05:01:10,0.003,0.0,0.0,0.0
21/04/2022,05:02:10,0.002,0.0,0.0,0.0
21/04/2022,05:03:10,0.004,0.0,0.0,0.0
21/04/2022,05:04:10,0.004,0.0,0.0,0.0
21/04/2022,05:05:10,0.004,0.0,0.0,0.0
21/04/2022,05:06:10,0.004,0.0,0.0,0.0
21/04/2022,05:07:18,0.004,0.0,0.0,0.0
21/04/2022,05:08:09,0.004,0.0,0.0,0.0
21/04/2022,05:09:10,0.004,0.0,0.0,0.0
21/04/2022,05:10:10,0.005,0.0,0.0,0.0
21/04/2022,05:11:10,0.005,0.0,0.0,0.0
21/04/2022,05:12:11,0.005,0.0,0.0,0.0
21/04/2022,05:13:10,0.004,0.0,0.0,0.0
21/04/2022,05:14:10,0.005,0.0,0.0,0.0
21/04/2022,05:15:10,0.005,0.0,0.0,0.0
21/04/2022,05:16:10,0.006,0.0,0.0,0.0
21/04/2022,05:17:18,0.006,0.0,0.0,0.0
21/04/2022,05:18:09,0.006,0.0,0.0,0.0
21/04/2022,05:19:10,0.007,0.0,0.0,0.0
21/04/2022,05:20:19,0.007,0.0,0.0,0.0
21/04/2022,05:21:09,0.008,0.0,0.0,0.0
21/04/2022,05:22:10,0.007,0.0,0.001,0.001
21/04/2022,05:23:10,0.007,0.0,0.001,0.0
21/04/2022,05:24:10,0.008,0.0,0.001,0.0
21/04/2022,05:25:10,0.008,0.0,0.001,0.0
21/04/2022,05:26:10,0.009,0.0,0.001,0.0
21/04/2022,05:27:10,0.009,0.0,0.001,0.0
21/04/2022,05:28:21,0.009,0.0,0.001,0.0
21/04/2022,05:30:11,0.011,0.0,0.002,0.001
21/04/2022,05:31:10,0.010,0.0,0.002,0.0
21/04/2022,05:32:10,0.011,0.0,0.002,0.0
21/04/2022,05:33:10,0.011,0.0,0.002,0.0
21/04/2022,05:34:10,0.012,0.0,0.002,0.0
21/04/2022,05:35:18,0.012,0.0,0.003,0.001
21/04/2022,05:36:09,0.013,0.0,0.003,0.0
21/04/2022,05:37:10,0.013,0.0,0.003,0.0
21/04/2022,05:38:10,0.013,0.0,0.003,0.0
21/04/2022,05:39:10,0.014,0.0,0.004,0.001
21/04/2022,05:40:10,0.014,0.0,0.004,0.0
21/04/2022,05:41:10,0.015,0.0,0.004,0.0
21/04/2022,05:42:11,0.014,0.0,0.004,0.0
21/04/2022,05:43:11,0.016,0.0,0.005,0.001
21/04/2022,05:44:10,0.017,0.0,0.005,0.0
21/04/2022,05:45:18,0.017,0.0,0.005,0.0
21/04/2022,05:47:11,0.018,0.0,0.006,0.001
21/04/2022,05:48:10,0.018,0.0,0.006,0.0
21/04/2022,05:49:10,0.019,0.0,0.006,0.0
21/04/2022,05:50:10,0.020,0.0,0.007,0.001
21/04/2022,05:51:10,0.021,0.0,0.007,0.0
21/04/2022,05:52:10,0.021,0.0,0.007,0.0
21/04/2022,05:53:10,0.021,0.0,0.008,0.001
21/04/2022,05:54:10,0.022,0.0,0.008,0.0
21/04/2022,05:55:10,0.023,0.0,0.008,0.0
21/04/2022,05:56:10,0.023,0.0,0.009,0.001
21/04/2022,05:57:10,0.024,0.0,0.009,0.0
21/04/2022,05:58:10,0.025,0.0,0.01,0.001
21/04/2022,05:59:10,0.025,0.0,0.01,0.0
21/04/2022,06:00:10,0.026,0.0,0.01,0.0
21/04/2022,06:01:10,0.027,0.0,0.011,0.001
21/04/2022,06:02:10,0.027,0.0,0.011,0.0
21/04/2022,06:03:10,0.029,0.0,0.012,0.001
21/04/2022,06:04:10,0.030,0.0,0.012,0.0
21/04/2022,06:05:10,0.031,0.0,0.013,0.001
21/04/2022,06:06:20,0.032,0.0,0.013,0.0
21/04/2022,06:08:12,0.033,0.0,0.014,0.001
21/04/2022,06:09:10,0.034,0.0,0.015,0.001
21/04/2022,06:10:10,0.035,0.0,0.016,0.001
21/04/2022,06:11:10,0.036,0.0,0.016,0.0
21/04/2022,06:12:10,0.037,0.0,0.017,0.001
21/04/2022,06:13:18,0.039,0.0,0.017,0.0
21/04/2022,06:14:09,0.039,0.0,0.018,0.001
21/04/2022,06:15:10,0.041,0.0,0.019,0.001
21/04/2022,06:16:10,0.041,0.0,0.019,0.0
21/04/2022,06:17:10,0.042,0.0,0.02,0.001
21/04/2022,06:18:10,0.044,0.0,0.021,0.001
21/04/2022,06:19:10,0.044,0.0,0.022,0.001
21/04/2022,06:20:10,0.046,0.0,0.022,0.0
21/04/2022,06:21:10,0.047,0.0,0.023,0.001
21/04/2022,06:22:11,0.048,0.0,0.024,0.001
21/04/2022,06:23:18,0.050,0.0,0.025,0.001
21/04/2022,06:24:10,0.022,0.0,0.025,0.0
21/04/2022,06:25:10,0.041,0.0,0.026,0.001
21/04/2022,06:26:02,0.053,0.0,0.027,0.001
21/04/2022,06:27:11,0.054,0.0,0.028,0.001
21/04/2022,06:28:10,0.055,0.0,0.029,0.001
21/04/2022,06:29:10,0.058,0.0,0.03,0.001
21/04/2022,06:30:11,0.058,0.0,0.031,0.001
21/04/2022,06:31:10,0.060,0.0,0.031,0.0
21/04/2022,06:32:10,0.061,0.0,0.032,0.001
21/04/2022,06:33:10,0.063,0.0,0.034,0.002
21/04/2022,06:34:10,0.064,0.0,0.035,0.001
21/04/2022,06:35:10,0.066,0.0,0.036,0.001
21/04/2022,06:36:10,0.067,0.0,0.037,0.001
21/04/2022,06:37:19,0.069,0.0,0.038,0.001
21/04/2022,06:39:11,0.072,0.0,0.04,0.002
21/04/2022,06:40:10,0.074,0.0,0.041,0.001
21/04/2022,06:41:10,0.075,0.0,0.043,0.002
21/04/2022,06:42:10,0.078,0.0,0.044,0.001
21/04/2022,06:43:11,0.079,0.0,0.045,0.001
21/04/2022,06:44:10,0.080,0.0,0.047,0.002
21/04/2022,06:45:10,0.082,0.0,0.048,0.001
21/04/2022,06:46:10,0.084,0.0,0.049,0.001
21/04/2022,06:47:11,0.087,0.0,0.051,0.002
21/04/2022,06:48:10,0.089,0.0,0.052,0.001
21/04/2022,06:49:10,0.091,0.0,0.054,0.002
21/04/2022,06:50:10,0.093,0.0,0.055,0.001
21/04/2022,06:51:10,0.094,0.0,0.057,0.002
21/04/2022,06:52:19,0.097,0.0,0.059,0.002
21/04/2022,06:53:10,0.100,0.0,0.06,0.001
21/04/2022,06:54:11,0.101,0.0,0.062,0.002
21/04/2022,06:55:10,0.104,0.0,0.063,0.001
21/04/2022,06:56:10,0.106,0.0,0.065,0.002
21/04/2022,06:57:10,0.107,0.0,0.067,0.002
21/04/2022,06:58:10,0.110,0.0,0.069,0.002
21/04/2022,06:59:11,0.112,0.0,0.071,0.002
21/04/2022,07:00:10,0.115,0.0,0.072,0.001
21/04/2022,07:01:10,0.116,0.0,0.074,0.002
21/04/2022,07:02:19,0.120,0.0,0.077,0.003
21/04/2022,07:03:10,0.122,0.0,0.078,0.001
21/04/2022,07:04:10,0.125,0.0,0.08,0.002
21/04/2022,07:05:11,0.126,0.0,0.083,0.003
21/04/2022,07:06:10,0.129,0.0,0.085,0.002
21/04/2022,07:07:10,0.131,0.0,0.087,0.002
21/04/2022,07:08:10,0.134,0.0,0.089,0.002
21/04/2022,07:09:11,0.137,0.0,0.091,0.002
21/04/2022,07:10:10,0.139,0.0,0.094,0.003
21/04/2022,07:11:10,0.141,0.0,0.096,0.002
21/04/2022,07:12:10,0.144,0.0,0.098,0.002
21/04/2022,07:13:11,0.147,0.0,0.101,0.003
21/04/2022,07:14:10,0.149,0.0,0.103,0.002
21/04/2022,07:15:26,0.153,0.0,0.106,0.003
21/04/2022,07:17:19,0.159,0.0,0.111,0.005
21/04/2022,07:19:10,0.163,0.0,0.116,0.005
21/04/2022,07:20:18,0.167,0.0,0.119,0.003
21/04/2022,07:21:10,0.169,0.0,0.122,0.003
21/04/2022,07:22:10,0.173,0.0,0.125,0.003
21/04/2022,07:23:10,0.175,0.0,0.128,0.003
21/04/2022,07:24:10,0.179,0.0,0.13,0.002
21/04/2022,07:25:11,0.181,0.0,0.133,0.003
21/04/2022,07:26:11,0.184,0.0,0.137,0.004
21/04/2022,07:27:10,0.188,0.0,0.14,0.003
21/04/2022,07:28:10,0.192,0.0,0.143,0.003
21/04/2022,07:29:10,0.196,0.0,0.146,0.003
21/04/2022,07:30:19,0.199,0.0,0.15,0.004
21/04/2022,07:31:10,0.202,0.0,0.153,0.003
21/04/2022,07:32:10,0.205,0.0,0.156,0.003
21/04/2022,07:33:10,0.209,0.0,0.159,0.003
21/04/2022,07:34:10,0.213,0.0,0.163,0.004
21/04/2022,07:35:10,0.215,0.0,0.167,0.004
21/04/2022,07:36:10,0.221,1.0,0.17,0.003
21/04/2022,07:37:10,0.224,1.0,0.174,0.004
21/04/2022,07:38:19,0.228,1.0,0.178,0.004
21/04/2022,07:39:10,0.232,1.0,0.181,0.003
21/04/2022,07:40:19,0.236,1.0,0.186,0.005
21/04/2022,07:41:18,0.239,1.0,0.19,0.004
21/04/2022,07:42:10,0.243,1.0,0.193,0.003
21/04/2022,07:43:10,0.247,1.0,0.197,0.004
21/04/2022,07:44:10,0.251,1.0,0.202,0.005
21/04/2022,07:45:10,0.255,1.0,0.206,0.004
21/04/2022,07:46:10,0.260,1.0,0.21,0.004
21/04/2022,07:47:11,0.264,1.0,0.214,0.004
21/04/2022,07:48:10,0.268,1.0,0.219,0.005
21/04/2022,07:49:12,0.271,1.0,0.224,0.005
21/04/2022,07:50:10,0.275,1.0,0.228,0.004
21/04/2022,07:51:18,0.280,1.0,0.233,0.005
21/04/2022,07:53:17,0.288,1.0,0.243,0.01
21/04/2022,07:54:19,0.292,1.0,0.247,0.004
21/04/2022,07:55:10,0.295,1.0,0.252,0.005
21/04/2022,07:56:10,0.299,1.0,0.257,0.005
21/04/2022,07:57:11,0.304,1.0,0.262,0.005
21/04/2022,07:58:11,0.307,1.0,0.267,0.005
21/04/2022,07:59:10,0.312,1.0,0.272,0.005
21/04/2022,08:00:10,0.316,1.0,0.277,0.005
21/04/2022,08:01:10,0.320,1.0,0.283,0.006
21/04/2022,08:02:10,0.323,1.0,0.288,0.005
21/04/2022,08:03:11,0.328,1.0,0.293,0.005
21/04/2022,08:04:10,0.332,1.0,0.299,0.006
21/04/2022,08:05:10,0.337,1.0,0.304,0.005
21/04/2022,08:06:10,0.341,1.0,0.31,0.006
21/04/2022,08:07:11,0.346,1.0,0.316,0.006
21/04/2022,08:08:18,0.352,1.0,0.322,0.006
21/04/2022,08:10:11,0.361,1.0,0.333,0.011
21/04/2022,08:11:10,0.367,1.0,0.34,0.007
21/04/2022,08:12:10,0.372,1.0,0.346,0.006
21/04/2022,08:13:11,0.376,1.0,0.352,0.006
21/04/2022,08:14:19,0.381,1.0,0.359,0.007
21/04/2022,08:15:10,0.384,1.0,0.365,0.006
21/04/2022,08:16:19,0.390,1.0,0.372,0.007
21/04/2022,08:17:11,0.395,1.0,0.378,0.006
21/04/2022,08:18:11,0.399,1.0,0.384,0.006
21/04/2022,08:19:19,0.406,1.0,0.392,0.008
21/04/2022,08:20:09,0.410,1.0,0.398,0.006
21/04/2022,08:21:11,0.413,1.0,0.405,0.007
21/04/2022,08:22:18,0.419,1.0,0.412,0.007
21/04/2022,08:24:11,0.430,1.0,0.426,0.014
21/04/2022,08:25:10,0.435,1.0,0.433,0.007
21/04/2022,08:26:10,0.439,1.0,0.44,0.007
21/04/2022,08:27:11,0.445,1.0,0.448,0.008
21/04/2022,08:28:10,0.451,1.0,0.455,0.007
21/04/2022,08:29:18,0.456,1.0,0.464,0.009
21/04/2022,08:30:10,0.459,1.0,0.47,0.006
21/04/2022,08:31:11,0.465,1.0,0.478,0.008
21/04/2022,08:32:10,0.472,1.0,0.486,0.008
21/04/2022,08:33:10,0.479,1.0,0.494,0.008
21/04/2022,08:34:11,0.483,1.0,0.502,0.008
21/04/2022,08:35:10,0.489,1.0,0.51,0.008
21/04/2022,08:36:11,0.494,1.0,0.518,0.008
21/04/2022,08:37:18,0.503,1.0,0.527,0.009
21/04/2022,08:39:11,0.513,1.0,0.543,0.016
21/04/2022,08:40:11,0.517,1.0,0.552,0.009
21/04/2022,08:41:10,0.524,1.0,0.56,0.008
21/04/2022,08:42:10,0.528,1.0,0.569,0.009
21/04/2022,08:49:15,0.569,1.0,0.634,0.065
21/04/2022,08:50:11,0.574,1.0,0.643,0.009
21/04/2022,08:51:11,0.579,1.0,0.652,0.009
21/04/2022,08:52:10,0.587,1.0,0.662,0.01
21/04/2022,08:53:12,0.595,1.0,0.672,0.01
21/04/2022,08:54:11,0.597,1.0,0.682,0.01
21/04/2022,08:55:12,0.591,1.0,0.692,0.01
21/04/2022,08:56:10,0.601,1.0,0.702,0.01
21/04/2022,08:57:18,0.616,1.0,0.713,0.011
21/04/2022,08:58:09,0.622,1.0,0.722,0.009
21/04/2022,08:59:10,0.630,1.0,0.733,0.011
21/04/2022,09:00:11,0.634,1.0,0.743,0.01
21/04/2022,09:01:11,0.641,1.0,0.754,0.011
21/04/2022,09:02:10,0.645,1.0,0.764,0.01
21/04/2022,09:03:10,0.652,1.0,0.775,0.011
21/04/2022,09:04:11,0.656,2.0,0.786,0.011
21/04/2022,09:05:10,0.663,2.0,0.797,0.011
21/04/2022,09:06:11,0.669,2.0,0.808,0.011
21/04/2022,09:07:11,0.674,2.0,0.819,0.011
21/04/2022,09:08:10,0.683,2.0,0.831,0.012
21/04/2022,09:09:11,0.691,2.0,0.842,0.011
21/04/2022,09:10:11,0.696,2.0,0.854,0.012
21/04/2022,09:11:11,0.701,2.0,0.865,0.011
21/04/2022,09:12:12,0.708,2.0,0.878,0.013
21/04/2022,09:13:11,0.716,2.0,0.889,0.011
21/04/2022,09:14:10,0.722,2.0,0.901,0.012
21/04/2022,09:15:10,0.729,2.0,0.913,0.012
21/04/2022,09:16:11,0.729,2.0,0.925,0.012
21/04/2022,09:17:19,0.737,2.0,0.939,0.014
21/04/2022,09:19:19,0.757,2.0,0.964,0.025
21/04/2022,09:21:11,0.769,2.0,0.988,0.024
21/04/2022,09:22:10,0.775,2.0,1.001,0.013
21/04/2022,09:23:10,0.773,2.0,1.014,0.013
21/04/2022,09:24:10,0.771,2.0,1.026,0.012
21/04/2022,09:25:19,0.792,2.0,1.042,0.016
21/04/2022,09:27:11,0.801,2.0,1.066,0.024
21/04/2022,09:28:18,0.808,2.0,1.081,0.015
21/04/2022,09:29:10,0.811,2.0,1.093,0.012
21/04/2022,09:30:10,0.815,2.0,1.107,0.014
21/04/2022,09:31:18,0.821,2.0,1.122,0.015
21/04/2022,09:32:10,0.831,2.0,1.134,0.012
21/04/2022,09:33:12,0.838,2.0,1.148,0.014
21/04/2022,09:34:12,0.837,2.0,1.162,0.014
21/04/2022,09:35:11,0.841,2.0,1.176,0.014
21/04/2022,09:36:11,0.852,2.0,1.19,0.014
21/04/2022,09:37:11,0.864,2.0,1.204,0.014
21/04/2022,09:38:11,0.865,2.0,1.219,0.015
21/04/2022,09:39:10,0.876,2.0,1.233,0.014
21/04/2022,09:40:10,0.882,2.0,1.248,0.015
21/04/2022,09:41:19,0.893,2.0,1.265,0.017
21/04/2022,09:43:19,0.903,2.0,1.295,0.03
21/04/2022,09:44:10,0.907,2.0,1.307,0.012
21/04/2022,09:45:11,0.913,2.0,1.322,0.015
21/04/2022,09:46:10,0.918,2.0,1.338,0.016
21/04/2022,09:47:11,0.922,2.0,1.353,0.015
21/04/2022,09:48:10,0.927,2.0,1.369,0.016
21/04/2022,09:49:19,0.937,2.0,1.386,0.017
21/04/2022,09:50:10,0.942,2.0,1.4,0.014
21/04/2022,09:51:11,0.939,2.0,1.415,0.015
21/04/2022,09:52:11,0.948,2.0,1.431,0.016
21/04/2022,09:53:11,0.963,2.0,1.447,0.016
21/04/2022,09:54:10,0.969,2.0,1.463,0.016
21/04/2022,09:55:10,0.972,2.0,1.479,0.016
21/04/2022,09:56:11,0.982,2.0,1.495,0.016
21/04/2022,09:57:10,0.992,2.0,1.512,0.017
21/04/2022,09:58:11,0.996,2.0,1.529,0.017
21/04/2022,09:59:11,1.001,2.0,1.545,0.016
21/04/2022,10:00:10,1.006,2.0,1.562,0.017
21/04/2022,10:01:10,1.012,2.0,1.579,0.017
21/04/2022,10:02:11,1.016,2.0,1.596,0.017
21/04/2022,10:03:10,1.015,2.0,1.613,0.017
21/04/2022,10:04:11,1.027,2.0,1.63,0.017
21/04/2022,10:05:19,1.038,2.0,1.649,0.019
21/04/2022,10:07:11,1.047,2.0,1.682,0.033
21/04/2022,10:08:10,1.049,2.0,1.699,0.017
21/04/2022,10:09:10,1.060,2.0,1.717,0.018
21/04/2022,10:10:11,1.061,2.0,1.734,0.017
21/04/2022,10:11:11,1.063,2.0,1.752,0.018
21/04/2022,10:12:10,1.066,2.0,1.77,0.018
21/04/2022,10:13:11,1.054,2.0,1.787,0.017
21/04/2022,10:14:11,1.070,2.0,1.805,0.018
21/04/2022,10:15:19,1.085,2.0,1.826,0.021
21/04/2022,10:17:23,1.086,2.0,1.863,0.037
21/04/2022,10:19:11,1.088,3.0,1.895,0.032
21/04/2022,10:20:11,1.092,3.0,1.914,0.019
21/04/2022,10:21:11,1.103,3.0,1.932,0.018
21/04/2022,10:22:11,1.112,3.0,1.95,0.018
21/04/2022,10:23:11,1.125,3.0,1.969,0.019
21/04/2022,10:24:10,1.138,3.0,1.988,0.019
21/04/2022,10:25:19,1.140,3.0,2.009,0.021
21/04/2022,10:27:12,1.152,3.0,2.046,0.037
21/04/2022,10:28:10,1.163,3.0,2.064,0.018
21/04/2022,10:29:11,1.166,3.0,2.084,0.02
21/04/2022,10:30:10,1.175,3.0,2.103,0.019
21/04/2022,10:31:11,1.182,3.0,2.123,0.02
21/04/2022,10:32:10,1.179,3.0,2.142,0.019
21/04/2022,10:33:10,1.187,3.0,2.162,0.02
21/04/2022,10:34:11,1.185,3.0,2.182,0.02
21/04/2022,10:35:10,1.185,3.0,2.202,0.02
21/04/2022,10:36:10,1.193,3.0,2.222,0.02
21/04/2022,10:37:10,1.192,3.0,2.241,0.019
21/04/2022,10:38:10,1.199,3.0,2.261,0.02
21/04/2022,10:39:19,1.213,3.0,2.285,0.024
21/04/2022,10:40:11,1.213,3.0,2.302,0.017
21/04/2022,10:41:10,1.217,3.0,2.322,0.02
21/04/2022,10:42:11,1.222,3.0,2.342,0.02
21/04/2022,10:43:11,1.212,3.0,2.363,0.021
21/04/2022,10:44:10,1.195,3.0,2.383,0.02